Regional Weather Roundup
Issued by NWS Grand Forks, ND

Home | Current Version | Previous Version | Graphics & Text | Print | Product List | Glossary On
Versions: 1 2 3 4 5 6 7 8 9 10 11 12 13 14 15 16 17 18 19 20 21 22 23 24 25 26 27 28 29 30 31 32 33 34 35 36 37 38 39 40 41 42 43 44 45 46 47 48 49 50
000
ASUS43 KFGF 280231
RWRFGF
PRAIRIE TO PINES  WEATHER ROUNDUP
NATIONAL WEATHER SERVICE EASTERN NORTH DAKOTA/GRAND FORKS ND
800 PM CST THU NOV 27 2014

 **SATELLITE DATA USED TO AUGMENT SKY COVER AT AUTOMATED STATIONS**
 *****  WEATHER ACROSS EASTERN NORTH DAKOTA  *****

CITY           SKY/WX    TMP DP  RH WIND       PRES   REMARKS
GRAND FORKS    LGT SNOW   7   1  78 SE9       30.21F WCI  -7
GRAND FRKS AFB LGT SNOW   5   1  85 S8        30.19F WCI  -8
GRAND FRKS NWS   N/A      7 N/A N/A S14         N/A  WCI -10
DEVILS LAKE    CLOUDY     7  -6  56 SE15      30.05F WCI -11
FARGO          LGT SNOW   8   1  73 SE13      30.19F WCI  -8
WAHPETON ARPT  CLOUDY     7   1  78 SE15      30.21F WCI -11
$$

 ***** WEATHER ACROSS CENTRAL AND WESTERN NORTH DAKOTA  *****

CITY           SKY/WX    TMP DP  RH WIND       PRES   REMARKS
BISMARCK       CLOUDY    12   7  80 SE13      29.96F WCI  -3
MINOT          CLOUDY    12   8  84 SE14      29.94F WCI  -3
JAMESTOWN      LGT SNOW   6   2  83 E12       30.06R VSB 3/4 WCI  -9
MINOT AFB      CLOUDY    10   7  85 E12       29.95S WCI  -4
GARRISON         N/A     12   9  87 SE16      29.91F WCI  -5
WILLISTON      PTCLDY    17  12  80 E8        29.85R WCI   7
DICKINSON      CLEAR     22  19  89 S9        29.76F WCI  12
HETTINGER      CLEAR     23  19  85 SE8       29.83F WCI  14
$$

 *****  OTHER AIRPORT OBSERVATIONS IN OUR AREA  *****

CITY           SKY/WX    TMP DP  RH WIND       PRES   REMARKS
WALHALLA         N/A      7   1  78 S10       30.14F WCI  -8
GRAFTON AIRPOR CLOUDY     5   0  78 S14       30.19F FOG     WCI -12
VALLEY CITY AR LGT SNOW   5   3  92 SE15      30.09F WCI -13
CANDO          CLOUDY     7   3  85 SE16      30.04F WCI -11
CAVALIER APRT  CLOUDY     5   1  85 S9        30.16F FOG     WCI  -9
GWINNER        CLOUDY     9   3  78 E15       30.12F WCI  -8
ROLLA          CLOUDY     5   1  85 S8        30.02F WCI  -8
 ***** THE ABOVE OBSERVATIONS ARE NON NWS ARE NOT QUALITY
       CONTROLLED AND MAY MIS-REPORT RAIN FOR SNOW...
$$

  *****  WEATHER ACROSS NORTHERN MINNESOTA  *****

CITY           SKY/WX    TMP DP  RH WIND       PRES   REMARKS
FLAG ISLAND    PTCLDY     3  -2  78 S10       30.20F WCI -12
WARROAD        PTCLDY     3  -2  78 S5        30.21F WCI  -6
ROSEAU         FAIR       3  -4  72 S3        30.21F
HALLOCK        PTCLDY     7  -2  66 S12       30.19F WCI  -9
THF RVR FALLS  CLOUDY     7   1  78 SE6       30.20F WCI  -3
BAUDETTE       MOCLDY     1  -7  68 S3        30.22F
WASKISH        CLOUDY     3  -2  78 CALM      30.23S
CROOKSTON      LGT SNOW   7   1  78 S8        30.22F WCI  -6
GREENBUSH NDAW   N/A      3  -2  78 S8          N/A  WCI -10
$$
  *****  WEATHER ACROSS CENTRAL AND WEST MINNESOTA  *****

CITY           SKY/WX    TMP DP  RH WIND       PRES   REMARKS
FOSSTON        CLOUDY     7  -2  66 S3        30.20S
BEMIDJI        PTCLDY     5  -2  70 SE6       30.20S WCI  -5
PARK RAPIDS    CLOUDY     6  -5  60 S9        30.19F WCI  -8
ELBOW LAKE     FLURRIES   6  -1  73 SE12      30.20F WCI -10
WADENA         CLOUDY     5  -4  66 S8        30.22R WCI  -8
DETROIT LAKES  PTCLDY    10   1  67 SE12      30.20R WCI  -4
MOORHEAD       LGT SNOW   9   3  78 SE10G20   30.21F WCI  -6
FERGUS FALLS   LGT SNOW   7  -2  66 SE12      30.25S WCI  -9
MORRIS MN      LGT SNOW   7   0  72 SE21      30.19F WCI -13
STAPLES        CLOUDY     3  -6  66 S8        30.23S WCI -10
$$
  *****  WEATHER ELSEWHERE ACROSS MINNESOTA  *****

CITY           SKY/WX    TMP DP  RH WIND       PRES   REMARKS
DULUTH         FAIR       2  -6  69 SW5       30.26F WCI  -8
INTRNTL FALLS  PTCLDY    -3  -9  75 SE5       30.24F WCI -13
ELY            PTCLDY    -9 -13  84 CALM      30.24F
CLOQUET        CLOUDY     3  -6  66 CALM      30.25F
WHEATON        FLURRIES   5   0  78 SE15      30.21F WCI -13
BRAINERD       PTCLDY     3  -5  69 SE6       30.25F WCI  -8
HIBBING        PTCLDY     1  -6  72 CALM      30.24F
ALEXANDRIA     CLOUDY     6  -4  63 S13       30.21F WCI -10
SAINT CLOUD    CLOUDY     7  -3  64 S8        30.28F WCI  -6
MINNEAPOLIS    MOCLDY     6  -4  63 S7        30.34F WCI  -6
$$

  *****  WEATHER ACROSS SOUTH DAKOTA  *****

CITY           SKY/WX    TMP DP  RH WIND       PRES   REMARKS
SIOUX FALLS    CLOUDY    13   6  74 SE14      30.17F WCI  -2
BROOKINGS      NOT AVBL
WATERTOWN      FLURRIES  11   5  77 SE12      30.08F WCI  -3
HURON          CLOUDY    14   7  73 SE15G25   30.06F WCI  -1
SISSETON         N/A      6   2  83 S16       30.16F WCI -12
ABERDEEN       CLOUDY    16   8  71 S16       30.06F WCI   1
MITCHELL       CLOUDY    18  10  71 SE18G30   30.08F WCI   2
PIERRE         CLOUDY    26  17  68 SE14      29.91F WCI  14
MOBRIDGE       CLOUDY    19  13  77 S17       29.91F WCI   4
RAPID CITY     CLEAR     27  23  85 CALM      29.87S
$$

  *****  SOME WEATHER IN NEARBY STATES *****

CITY           SKY/WX    TMP DP  RH WIND       PRES   REMARKS
GLASGOW MT     CLOUDY    25  22  88 E14       29.74F FOG     WCI  13
GREAT FALLS MT CLEAR     50  36  58 SW14      29.71F
CHEYENNE WY    CLEAR     48  22  35 W22       30.09F
SCOTTSBLUFF NE CLEAR     41  29  62 NW8       29.99S
OMAHA NE       PTCLDY    22  14  71 SE16      30.26F WCI   8
DES MOINES IA  FLURRIES  14   4  64 E7        30.37F WCI   4
DAVENPORT IA   PTCLDY     7   1  76 W5        30.42F WCI  -2
CHICAGO IL     PTCLDY    18   9  68 N7        30.39S WCI   9
EAU CLAIRE WI  PTCLDY     4  -2  76 CALM      30.35F
LA CROSSE WI   MOCLDY    12   2  64 CALM      30.40S
$$

  *****  SOME NATIONAL WEATHER *****

CITY           SKY/WX    TMP DP  RH WIND       PRES   REMARKS
LA GUARDIA NY  CLOUDY    37  27  67 NW15      30.05R
RALEIGH NC     PTCLDY    39  26  59 NW6       30.23R
ATLANTA GA     PTCLDY    39  25  57 N10       30.34F
NEW ORLEANS LA CLEAR     53  33  46 NE13      30.44R
OKLAHOMA CITY  PTCLDY    38  25  59 S8        30.31F
ALBUQUERQUE NM PTCLDY    45  20  36 SE6       30.33S
SALT LAKE CITY CLOUDY    50  25  37 SE9       30.15F
LOS ANGELES CA PTCLDY    67  53  61 W5        30.01R
BOISE ID       CLOUDY    47  43  86 CALM      30.02F
SEATTLE WA     LGT RAIN  54  50  86 S15G22    29.76F
$$

*** WEATHER ACROSS MANITOBA...SASKATCHEWAN AND ONTARIO ***
                ***ONTARIO***

CITY           SKY/WX    TMP DP  RH WIND       PRES   REMARKS
GERALDTON      CLEAR    -17 -26  63 CALM      30.22F
THUNDER BAY    PTCLDY    -6 -11  77 VRB2      30.33F
SIOUX LOOKOUT  MOCLDY    -2  -9  71 SW3       30.20F
TORONTO        SNOWSHWR  30  25  80 NW18      30.11R WCI  18
BIG TROUT LK   FLURRIES  -4  -9  77 W13G20    30.09F WCI -23
PICKLE LAKE    PTCLDY    -8 -15  71 W10       30.15F WCI -26
DRYDEN         NOT AVBL
KENORA         CLOUDY    -2  -8  78 S9        30.19F WCI -18
$$
                *** MANITOBA***

CITY           SKY/WX    TMP DP  RH WIND       PRES   REMARKS
BRANDON        FLURRIES   7   3  85 E6        30.07F WCI  -3
DAUPHIN        CLOUDY    10   5  79 S6        30.11S WCI   1
ISLAND LAKE    FLURRIES   0  -8  71 W7        30.13F WCI -13
PILOT MOUND      N/A      5   1  85 S10         N/A  WCI -10
THE PAS        MOCLDY     0  -4  85 N6        30.20S WCI -12
THOMPSON       CLEAR     -9 -15  77 W3        30.15S
WINNIPEG       CLOUDY     3  -4  72 S18       30.19F WCI -17
LYNN LAKE      CLEAR    -13 -18  77 NW6       30.14S WCI -27
CHURCHILL      CRYSTALS -11 -18  70 NW18G30   30.04S WCI -36
GILLAM         CLEAR     -9 -15  77 W9        30.11R WCI -27
$$
                ***SASKATCHEWAN***

CITY           SKY/WX    TMP DP  RH WIND       PRES   REMARKS
ESTEVAN        FLURRIES  10   7  85 E16       29.91F WCI  -7
KINDERSLEY     LGT SNOW  12   9  85 E26       29.81S DRFTSNOWWCI  -8
LLOYDMINSTER   LGT SNOW   1  -4  78 NE18G24   29.98  DRFTSNOWWCI -19
PRINCE ALBERT  FLURRIES   1  -2  85 E9        30.13R WCI -14
REGINA         FLURRIES  18  14  86 E15       29.92R WCI   3
YORKTON        CLOUDY     7   3  85 E6        30.04S WCI  -3
N. BATTLEFORD  LGT SNOW   7   5  92 E18       30.00F WCI -12
LA RONGE       PTCLDY    -9 -15  77 NW3       30.23F
SASKATOON      LGT SNOW   9   5  85 NE22G31   30.01F DRFTSNOWWCI -11
SWIFT CURRENT  LGT SNOW  18  16  93 E18G24    29.72F WCI   2
$$
NOTE: THESE ARE AUTOMATED STATIONS WITH LIMITED QUALITY CONTROL
      "FAIR" INDICATES FEW OR NO CLOUDS BELOW 12,000 FEET WITH NO
      SIGNIFICANT WEATHER AND/OR OBSTRUCTIONS TO VISIBILITY.
      SKY/WX - SKY CONDITION AND SIGNIFICANT WEATHER.
      TMP - AIR TEMPERATURE.    DP   - DEWPOINT TEMPERATURE.
      RH  - RELATIVE HUMIDITY.  PRES - PRESSURE.
      HX  - HEAT INDEX.         WCI  - WIND CHILL INDEX.
$


USA.gov is the U.S. government's official web portal to all federal, state and local government web resources and services.